Bat Cave, NC

7:22 PM EST on February 13, 2016 (GMT -0500)
Asheville Regional

Weather History for KAVL - April, 2007

Change the Weather History Date:

Friday, April 6, 2007

  Actual Average Record
Temperature  
Mean Temperature 38 °F 53 °F  
Max Temperature 50 °F 65 °F 88 °F (1967)
Min Temperature 26 °F 40 °F 22 °F (1898)
Degree Days  
Heating Degree Days 27 12  
Month to date heating degree days 65 79  
Since 1 July heating degree days 3654 3851  
Cooling Degree Days 0 0  
Month to date cooling degree days 0 0  
Year to date cooling degree days 0 1  
Moisture  
Dew Point 22 °F    
Average Humidity 54    
Maximum Humidity 78    
Minimum Humidity 29    
Precipitation  
Precipitation T in 0.11 in 1.86 in (1892)
Month to date precipitation 0.13 0.68  
Year to date precipitation 9.22 11.94  
Snow  
Snow T in 0.00 in 0.70 in (1931)
Month to date snowfall T 0.3  
Since 1 July snowfall 1.9 9.5  
Snow Depth -    
Sea Level Pressure  
Sea Level Pressure 29.86 in    
Wind  
Wind Speed 14 mph (NNW)    
Max Wind Speed 26 mph    
Max Gust Speed 30 mph    
Visibility 8 miles    
Events Snow    
T = Trace of Precipitation, MM = Missing Value Source: NWS Daily Summary

Daily Weather History Graph

Daily Weather History Graph

Search for Another Location

Airport or City:

Trip Planner

Search our weather history database for the weather conditions in past years. The results will help you decide how hot, cold, wet, or windy it might be!

Date:

Astronomy

Apr. 06, 2007 Rise Set
Actual Time 7:10 AM EDT 7:55 PM EDT
Civil Twilight 6:44 AM EDT 8:21 PM EDT
Nautical Twilight 6:14 AM EDT 8:51 PM EDT
Astronomical Twilight 5:42 AM EDT 9:23 PM EDT
Moon No Moon Rise 8:53 AM EDT (4/6)
Length of Visible Light 13h 36m
Length of Day
12h 45m
Waning Gibbous, 86% of the Moon is Illuminated
Apr 6
Waning Gibbous
Apr 10
Last Quarter
Apr 17
New
Apr 24
First Quarter
May 2
Full

Hourly Weather History & Observations

Time (EDT) Temp. Windchill Dew Point Humidity Pressure Visibility Wind Dir Wind Speed Gust Speed Precip Events Conditions
12:54 AM 35.1 °F 25.9 °F 19.0 °F 52% 29.97 in 10.0 mi North 13.8 mph - N/A   Clear
1:54 AM 34.0 °F 23.8 °F 19.0 °F 54% 29.97 in 10.0 mi North 16.1 mph 21.9 mph N/A   Clear
2:54 AM 32.0 °F 21.2 °F 19.0 °F 59% 29.96 in 10.0 mi North 16.1 mph 23.0 mph N/A   Clear
3:54 AM 32.0 °F 21.6 °F 18.0 °F 56% 29.94 in 10.0 mi North 15.0 mph 25.3 mph N/A   Clear
4:54 AM 30.9 °F 18.7 °F 18.0 °F 59% 29.93 in 10.0 mi NNW 19.6 mph 28.8 mph N/A   Clear
5:54 AM 30.9 °F 20.7 °F 18.0 °F 59% 29.93 in 10.0 mi North 13.8 mph 23.0 mph N/A   Mostly Cloudy
6:54 AM 30.9 °F 19.4 °F 18.0 °F 59% 29.95 in 10.0 mi NNW 17.3 mph 24.2 mph N/A   Mostly Cloudy
7:54 AM 30.9 °F 19.8 °F 18.0 °F 59% 29.97 in 10.0 mi North 16.1 mph 24.2 mph N/A   Overcast
8:54 AM 33.1 °F 23.0 °F 19.0 °F 56% 29.97 in 10.0 mi North 15.0 mph 23.0 mph N/A   Overcast
9:54 AM 34.0 °F 25.0 °F 19.0 °F 54% 29.95 in 10.0 mi NNW 12.7 mph - N/A   Scattered Clouds
10:54 AM 37.9 °F 30.5 °F 19.9 °F 48% 29.93 in 10.0 mi North 11.5 mph 18.4 mph N/A   Overcast
11:54 AM 41.0 °F 34.7 °F 21.9 °F 47% 29.90 in 10.0 mi NNW 10.4 mph - N/A   Overcast
12:54 PM 43.0 °F 39.5 °F 23.0 °F 45% 29.86 in 10.0 mi NNW 5.8 mph - N/A   Scattered Clouds
1:54 PM 48.0 °F - 23.0 °F 37% 29.80 in 10.0 mi NNW 9.2 mph - N/A   Overcast
2:54 PM 50.0 °F - 23.0 °F 35% 29.76 in 10.0 mi North 10.4 mph - N/A   Overcast
3:54 PM 50.0 °F - 19.0 °F 29% 29.73 in 10.0 mi NNW 12.7 mph 18.4 mph N/A   Mostly Cloudy
4:54 PM 46.0 °F 39.9 °F 17.1 °F 31% 29.74 in 10.0 mi North 13.8 mph 21.9 mph N/A   Overcast
5:54 PM 44.1 °F 37.4 °F 18.0 °F 35% 29.75 in 10.0 mi North 13.8 mph 20.7 mph N/A   Scattered Clouds
6:54 PM 43.0 °F 36.4 °F 18.0 °F 37% 29.75 in 10.0 mi North 12.7 mph 19.6 mph N/A   Overcast
7:54 PM 42.1 °F 35.2 °F 18.0 °F 38% 29.75 in 10.0 mi North 12.7 mph - N/A   Overcast
8:54 PM 37.9 °F 29.6 °F 24.1 °F 57% 29.79 in 10.0 mi North 13.8 mph - N/A   Overcast
9:54 PM 34.0 °F 23.8 °F 28.0 °F 79% 29.83 in 8.0 mi North 16.1 mph - 0.00 in Snow Light Snow
10:34 PM 32.0 °F 23.0 °F 28.4 °F 87% 29.81 in 2.0 mi North 11.5 mph - 0.00 in Snow Light Snow
10:36 PM 32.0 °F 23.6 °F 28.4 °F 87% 29.81 in 1.5 mi North 10.4 mph - 0.00 in Snow Light Snow
10:38 PM 32.0 °F 23.0 °F 28.4 °F 87% 29.81 in 1.2 mi North 11.5 mph - 0.00 in Snow Light Snow
10:45 PM 32.0 °F 22.5 °F 28.4 °F 87% 29.81 in 1.2 mi NNW 12.7 mph 20.7 mph 0.00 in Snow Light Snow
10:54 PM 32.0 °F 21.2 °F 28.0 °F 85% 29.83 in 8.0 mi North 16.1 mph 20.7 mph 0.00 in Snow Light Snow
11:10 PM 30.2 °F 18.9 °F 26.6 °F 86% 29.81 in 2.5 mi North 16.1 mph - 0.00 in Snow Light Snow
11:19 PM 30.2 °F 17.8 °F 26.6 °F 86% 29.82 in 6.0 mi NNW 19.6 mph 27.6 mph 0.00 in Snow Light Snow
11:39 PM 28.4 °F 14.7 °F 24.8 °F 86% 29.83 in 2.0 mi NNW 21.9 mph 29.9 mph 0.00 in Snow Light Snow
11:54 PM 28.9 °F 16.1 °F 23.0 °F 78% 29.85 in 3.0 mi North 19.6 mph 28.8 mph 0.00 in Snow Light Snow